Location: Veytaux
(46.4185°N, 6.9320°E)
Time: 07:32:02
(UTC+00:00)

DEBRIS - Pass Details

Date: 30 September 2022
Orbit: 309 x 15045 km, 49.5° (Epoch: 04 December)

Event Time Altitude Azimuth Distance (km) Brightness Sun altitude
Rises 01:13:04 0° 130° (SE) 13,343 9.8 -40.1°
Reaches altitude 10° 01:29:40 10° 118° (ESE) 14,839 10.1 -38.3°
Maximum altitude 02:47:44 28° 80° (E) 17,680 10.9 -27.7°
Drops below altitude 10° 03:52:52 10° 50° (NE) 14,748 11.0 -17.3°
Sets 04:05:41 0° 44° (NE) 13,879 10.9 -15.1°
